Погода в Раннерсе

Дания     56°26′50″N   10°02′47″E
темп.,
°C
ветер,
м/с
пор.,
м/с
влажн.,
%
обл.,
%
осадки,
мм/ч
давл.,
гПа
погр.,
м
12 августа, пт
пт1223:00+17ссз22805 0.0 102323
02:00+15ссз11875 0.0 102411
05:00+15ю01855 0.0 102311
08:00+19зюз12670 0.0 1023143
11:00+25зюз22452 0.0 1023735
14:00+28ююв23355 0.0 10221523
17:00+29ююв43325 0.0 10211742
20:00+25ю353771 0.0 1021118
13 августа, сб
сб1323:00+18ююз115524 0.0 102112
02:00+17ю225831 0.0 102115
05:00+16ююз226477 0.0 102112
08:00+20юз11535 0.0 1020102
11:00+26ю223561 0.0 1020767
14:00+30ю232720 0.0 10191779
17:00+31юз022529 0.0 10182227
20:00+25ююв344138 0.0 1017134
14 августа, вс
вс1423:00+20ююв33587 0.0 101842
02:00+18ю126363 0.0 101711
05:00+17юз226583 0.0 101712
08:00+21зюз115322 0.0 101787
11:00+28юв33345 0.0 1015905
14:00+30юв54295 0.0 10141996
17:00+30юв442728 0.0 10132093
20:00+25юв3642100 0.0 1012144
15 августа, пн
пн1523:00+20вюв3761100 0.0 1012123
02:00+20юв3870100 0.0 1011191
05:00+18в3774100 0.0 1010151
08:00+20вюв4870100 0.1 1010303
11:00+22в476792 0.6 1009423
14:00+27в664799 1.2 10071088
17:00+25всв7760100 0.1 1006726
20:00+21всв59888 1.6 1005248
16 августа, вт
вт1623:00+19вюв49916 1.5 1005215
02:00+19юв4996100 2.4 1004251
05:00+18юв379753 0.7 1004192
08:00+19юв3588100 1.4 1004206
11:00+23ююв3471100 0.0 1004580
14:00+26ю455747 5.3 10041043
17:00+24зсз666549 1.6 1004689
20:00+22з23787 3.1 1005101